User: anonymous   Login
Location: Peebles
(55.6412°N, 3.1714°W)
Time: 03:16:43
(UTC+00:00)
Language:

Cosmos 2219 - Orbit

View from above orbital plane
View from above orbital plane
View from above satellite
View from above satellite

Ground track
Ground track

The orbit data is extracted from the following two-line orbital elements,

1 22219U 92076A   21333.63233396 -.00000131  00000-0 -44249-4 0  9991
2 22219  71.0629  40.1562 0015939  59.4810 300.7883 14.13678341497732
Epoch (UTC): 29 November 2021 15:10:33
Eccentricity: 0.0015939
inclination: 71.0629°
perigee height: 835 km
apogee height: 858 km
right ascension of ascending node: 40.1562°
argument of perigee: 59.4810°
revolutions per day: 14.13678341
mean anomaly at epoch: 300.7883°
orbit number at epoch: 49773

The dashed part of the orbit path shows where the satellite is in the earth's shadow,  

DLR